This demonstration page uses our WeatherBlox Daily Observations layout. Learn more.

39.92423, -83.80882

Hourly Observations for September 28, 2018

Temp ( °F °C ) Dew Point ( °F °C ) Humidity (%) Winds ( mph kmh ) Pressure ( in mb ) Visibility ( mi km ) Precip ( " mm )
12:30 am 00:30 Mostly Clear with Mist and Fog 48 9 48 9 100 100 Calm 30.09 1019 1.5 2.41401 0 0
12:33 am 00:33 Mostly Cloudy with Mist and Fog 48 9 48 9 100 100 Calm 30.09 1019 0.75 1.207005 0 0
12:40 am 00:40 Mostly Clear with Mist and Fog 48 9 48 9 100 100 Calm 30.09 1019 1.25 2.011675 0 0
12:42 am 00:42 Mostly Clear with Mist and Fog 50 10 50 10 100 100 Calm 30.09 1019 3 4.82802 0 0
12:56 am 00:56 Mostly Clear with Mist and Fog 49 9.4 49 9.4 100 100 Calm 30.05 1018 5 8.0467 0 0
1:08 am 01:08 Clear with Mist and Fog 50 10 50 10 100 100 WSW 3 6 30.09 1019 1.75 2.816345 0 0
1:24 am 01:24 Clear with Mist and Fog 48 9 48 9 100 100 WSW 3 6 30.09 1019 3 4.82802 0 0
1:54 am 01:54 Clear with Mist and Fog 48 9 48 9 100 100 Calm 30.06 1018 1.5 2.41401 0.01 0.254
1:56 am 01:56 Clear with Mist and Fog 48 8.9 48 8.9 100 100 Calm 30.05 1018 1.25 2.011675 0.01 0.254
2:00 am 02:00 Clear with Mist and Fog 46 8 46 8 100 100 Calm 30.06 1018 0.75 1.207005 0 0
2:07 am 02:07 Clear with Mist and Fog 48 9 48 9 100 100 SSW 3 6 30.06 1018 1.25 2.011675 0 0
2:12 am 02:12 Clear with Mist and Fog 48 9 48 9 100 100 SW 3 6 30.09 1019 3 4.82802 0 0
2:29 am 02:29 Clear with Mist and Fog 48 9 48 9 100 100 WSW 3 6 30.09 1019 1.75 2.816345 0 0
2:54 am 02:54 Clear with Mist and Fog 48 9 48 9 100 100 Calm 30.09 1019 2 3.21868 0 0
2:56 am 02:56 Clear with Mist and Fog 49 9.4 49 9.4 100 100 Calm 30.07 1018 1.25 2.011675 0 0
3:00 am 03:00 Clear with Mist and Fog 48 9 48 9 100 100 WSW 3 6 30.09 1019 0.75 1.207005 0 0
3:26 am 03:26 Clear with Mist and Fog 48 9 48 9 100 100 W 3 6 30.09 1019 1 1.60934 0 0
3:34 am 03:34 Clear with Fog 48 9 48 9 100 100 W 3 6 30.09 1019 0.5 0.80467 0 0
3:56 am 03:56 Clear with Mist and Fog 47 8.3 47 8.3 100 100 Calm 30.08 1019 0.75 1.207005 0 0
4:05 am 04:05 Mostly Cloudy with Mist and Fog 46 8 46 8 100 100 Calm 30.09 1019 1 1.60934 0.01 0.254
4:20 am 04:20 Mostly Cloudy with Mist and Fog 46 8 46 8 100 100 Calm 30.09 1019 0.75 1.207005 0.01 0.254
4:28 am 04:28 Mostly Cloudy with Fog 46 8 46 8 100 100 SW 3 6 30.09 1019 0.5 0.80467 0.01 0.254
4:39 am 04:39 Cloudy with Fog 46 8 46 8 100 100 SW 3 6 30.09 1019 0.25 0.402335 0.01 0.254
4:56 am 04:56 Cloudy with Fog 46 7.8 46 7.8 100 100 SW 3 6 30.09 1019 0.5 0.80467 0.01 0.254
5:03 am 05:03 Cloudy with Mist and Fog 46 8 46 8 100 100 SSW 3 6 30.12 1020 0.75 1.207005 0 0
5:09 am 05:09 Mostly Cloudy with Mist and Fog 46 8 46 8 100 100 SSW 3 6 30.12 1020 1.25 2.011675 0 0
5:13 am 05:13 Mostly Cloudy with Mist and Fog 46 8 46 8 100 100 SW 3 6 30.12 1020 3 4.82802 0 0
5:24 am 05:24 Partly Cloudy with Mist and Fog 45 7 45 7 100 100 SW 3 6 30.12 1020 2 3.21868 0 0
5:26 am 05:26 Mostly Cloudy with Mist and Fog 46 8 46 8 100 100 SW 3 6 30.12 1020 1 1.60934 0 0
5:31 am 05:31 Mostly Cloudy with Fog 46 8 46 8 100 100 SW 3 6 30.12 1020 0.5 0.80467 0 0
5:48 am 05:48 Mostly Cloudy with Mist and Fog 46 8 46 8 100 100 WSW 3 6 30.12 1020 1 1.60934 0 0
5:56 am 05:56 Mostly Cloudy with Mist and Fog 46 7.8 46 7.8 100 100 SW 3 6 30.1 1019 1 1.60934 0 0
6:07 am 06:07 Mostly Cloudy with Mist and Fog 45 7 45 7 100 100 Calm 30.12 1020 2 3.21868 0 0
6:14 am 06:14 Mostly Cloudy with Mist and Fog 45 7 45 7 100 100 Calm 30.12 1020 1 1.60934 0 0
6:23 am 06:23 Mostly Cloudy with Mist and Fog 45 7 45 7 100 100 Calm 30.12 1020 2 3.21868 0 0
6:27 am 06:27 Partly Cloudy with Mist and Fog 45 7 45 7 100 100 Calm 30.12 1020 4 6.43736 0 0
6:47 am 06:47 Mostly Cloudy with Mist and Fog 43 6 43 6 100 100 SSE 3 6 30.15 1021 2.5 4.02335 0 0
6:51 am 06:51 Mostly Cloudy with Mist and Fog 43 6 43 6 100 100 Calm 30.15 1021 1 1.60934 0 0
6:56 am 06:56 Mostly Cloudy with Fog 43 6.1 43 6.1 100 100 Calm 30.12 1020 0.5 0.80467 0 0
7:02 am 07:02 Mostly Cloudy with Mist and Fog 43 6 43 6 100 100 Calm 30.15 1021 1 1.60934 0 0
7:06 am 07:06 Partly Cloudy with Mist and Fog 43 6 43 6 100 100 Calm 30.15 1021 2 3.21868 0 0
7:11 am 07:11 Mostly Cloudy with Mist and Fog 43 6 43 6 100 100 Calm 30.15 1021 1 1.60934 0 0
7:19 am 07:19 Mostly Cloudy with Mist and Fog 45 7 45 7 100 100 Calm 30.15 1021 0.75 1.207005 0 0
7:25 am 07:25 Mostly Cloudy with Fog 43 6 43 6 100 100 Calm 30.15 1021 0.25 0.402335 0 0
7:36 am 07:36 Mostly Cloudy with Fog 43 6 43 6 100 100 SSE 3 6 30.15 1021 0.5 0.80467 0 0
7:43 am 07:43 Mostly Cloudy with Fog 45 7 45 7 100 100 S 3 6 30.15 1021 0.25 0.402335 0 0
7:48 am 07:48 Mostly Cloudy with Mist and Fog 45 7 45 7 100 100 S 3 6 30.15 1021 0.75 1.207005 0 0
7:50 am 07:50 Partly Cloudy with Mist and Fog 45 7 45 7 100 100 Calm 30.15 1021 1.25 2.011675 0 0
7:56 am 07:56 Partly Cloudy with Mist and Fog 46 7.8 46 7.8 100 100 S 3 6 30.13 1020 2.5 4.02335 0 0
8:03 am 08:03 Partly Cloudy with Mist and Fog 46 8 46 8 100 100 Calm 30.15 1021 3 4.82802 0 0
8:56 am 08:56 Sunny with Mist and Fog 52 11.1 52 11.1 100 100 Calm 30.14 1021 6 9.65604 0.01 0.254
9:56 am 09:56 Sunny 57 13.9 54 12.2 90 90 SW 5 7 30.15 1021 10 16.0934 0 0
10:56 am 10:56 Sunny 62 16.7 51 10.6 67 67 SW 6 9 30.16 1021 10 16.0934 0 0
11:56 am 11:56 Sunny 65 18.3 51 10.6 61 61 SSW 9 15 30.15 1021 10 16.0934 0 0
12:56 pm 12:56 Sunny 67 19.4 48 8.9 51 51 WSW 7 11 30.15 1021 10 16.0934 0 0
1:56 pm 13:56 Sunny 68 20 49 9.4 51 51 SSW 12 19 30.14 1021 10 16.0934 0 0
2:56 pm 14:56 Sunny 70 21.1 49 9.4 47 47 SSW 8 13 30.12 1020 10 16.0934 0.01 0.254
3:56 pm 15:56 Sunny 70 21.1 46 7.8 42 42 SW 6 9 30.11 1020 10 16.0934 0 0
4:56 pm 16:56 Sunny 71 21.7 49 9.4 46 46 WSW 6 9 30.11 1020 10 16.0934 0 0
5:56 pm 17:56 Sunny 70 21.1 48 8.9 46 46 WSW 12 19 30.12 1020 10 16.0934 0 0
6:56 pm 18:56 Sunny 66 18.9 48 8.9 52 52 SW 7 11 30.14 1021 10 16.0934 0 0
7:56 pm 19:56 Clear 60 15.6 49 9.4 67 67 SW 5 7 30.15 1021 10 16.0934 0 0
8:56 pm 20:56 Clear 58 14.4 50 10 75 75 SSW 6 9 30.17 1022 10 16.0934 0 0
9:56 pm 21:56 Clear 58 14.4 51 10.6 78 78 SW 6 9 30.17 1022 10 16.0934 0 0
10:56 pm 22:56 Clear 57 13.9 52 11.1 83 83 SW 6 9 30.18 1022 10 16.0934 0 0
11:56 pm 23:56 Clear 56 13.3 51 10.6 84 84 N 9 15 30.22 1023 10 16.0934 0 0

Powered by AerisWeather